Moffett NAS, CA

7:53 PM PDT on May 22, 2017 (GMT -0700)
Moffett Federal Air Field

Weather History for KNUQ - October, 2012

Change the Weather History Date:

Monday, October 29, 2012

  Actual Average Record
Temperature  
Mean Temperature 63 °F 61 °F  
Max Temperature 71 °F 71 °F 86 °F (1993)
Min Temperature 55 °F 51 °F 33 °F (1946)
Degree Days  
Heating Degree Days 2    
Month to date heating degree days 60  
Since 1 July heating degree days 106  
Cooling Degree Days 0    
Month to date cooling degree days 57  
Year to date cooling degree days 315  
Growing Degree Days 12 (Base 50)    
Moisture  
Dew Point 56 °F    
Average Humidity 81    
Maximum Humidity 100    
Minimum Humidity 61    
Precipitation  
Precipitation 0.00 in 0.04 in 1.01 in (1950)
Month to date precipitation 0.56 0.56  
Year to date precipitation 6.07 10.40  
Since 1 July precipitation 0.56  
Sea Level Pressure  
Sea Level Pressure 30.08 in    
Wind  
Wind Speed 3 mph (North)    
Max Wind Speed 13 mph    
Max Gust Speed 15 mph    
Visibility 8 miles    
Events      
T = Trace of Precipitation, MM = Missing Value Source: NWS Daily Summary

Daily Weather History Graph

Daily Weather History Graph

Search for Another Location

Airport or City:

Trip Planner

Search our weather history database for the weather conditions in past years. The results will help you decide how hot, cold, wet, or windy it might be!

Date:

Astronomy

Oct. 29, 2012 Rise Set
Actual Time 7:30 AM PDT 6:12 PM PDT
Civil Twilight 7:03 AM PDT 6:39 PM PDT
Nautical Twilight 6:32 AM PDT 7:10 PM PDT
Astronomical Twilight 6:02 AM PDT 7:40 PM PDT
Moon 6:09 PM PDT (10/29) 7:25 AM PDT (10/29)
Length of Visible Light 11h 36m
Length of Day
10h 42m
Full, 100% of the Moon is Illuminated
Oct 29
Full
Oct 29
Full
Nov 6
Last Quarter
Nov 13
New
Nov 20
First Quarter

Hourly Weather History & Observations

Time (PDT) Temp. Dew Point Humidity Pressure Visibility Wind Dir Wind Speed Gust Speed Precip Events Conditions
12:56 AM 59.0 °F 55.9 °F 90% 30.06 in 10.0 mi Calm Calm - N/A   Clear
1:56 AM 57.9 °F 55.0 °F 90% 30.06 in 10.0 mi Calm Calm - N/A   Clear
2:56 AM 55.9 °F 54.0 °F 93% 30.06 in 10.0 mi Calm Calm - N/A   Clear
3:19 AM 55.4 °F 53.6 °F 94% 30.05 in 10.0 mi Calm Calm - N/A   Scattered Clouds
3:27 AM 55.4 °F 53.6 °F 94% 30.06 in 10.0 mi Calm Calm - N/A   Mostly Cloudy
3:56 AM 57.0 °F 54.0 °F 89% 30.07 in 10.0 mi Calm Calm - N/A   Overcast
4:56 AM 57.9 °F 55.9 °F 93% 30.07 in 10.0 mi Calm Calm - N/A   Overcast
5:56 AM 59.0 °F 57.0 °F 93% 30.09 in 8.0 mi Calm Calm - N/A   Overcast
6:28 AM 57.2 °F 57.2 °F 100% 30.08 in 4.0 mi Calm Calm - N/A   Overcast
6:56 AM 57.9 °F 57.0 °F 97% 30.09 in 3.0 mi Calm Calm - N/A   Overcast
7:42 AM 57.2 °F 55.4 °F 94% 30.09 in 7.0 mi Calm Calm - N/A   Overcast
7:56 AM 57.9 °F 55.9 °F 93% 30.11 in 6.0 mi Calm Calm - N/A   Overcast
8:56 AM 60.1 °F 55.9 °F 86% 30.12 in 7.0 mi Calm Calm - N/A   Overcast
9:56 AM 60.1 °F 55.9 °F 86% 30.13 in 7.0 mi SSE 3.5 mph - N/A   Overcast
10:56 AM 63.0 °F 55.9 °F 78% 30.12 in 8.0 mi Calm Calm - N/A   Scattered Clouds
11:56 AM 64.0 °F 57.0 °F 78% 30.11 in 6.0 mi North 5.8 mph - N/A   Haze
12:11 PM 64.4 °F 57.2 °F 77% 30.10 in 7.0 mi North 8.1 mph - N/A   Partly Cloudy
12:28 PM 62.6 °F 57.2 °F 82% 30.10 in 5.0 mi North 10.4 mph - N/A   Haze
12:56 PM 64.0 °F 57.0 °F 78% 30.10 in 5.0 mi North 10.4 mph - N/A   Haze
1:56 PM 64.9 °F 57.0 °F 75% 30.08 in 10.0 mi North 10.4 mph - N/A   Clear
2:56 PM 68.0 °F 57.0 °F 68% 30.07 in 10.0 mi NNW 8.1 mph - N/A   Clear
3:56 PM 70.0 °F 57.0 °F 63% 30.05 in 10.0 mi North 6.9 mph - N/A   Clear
4:56 PM 69.1 °F 55.9 °F 63% 30.06 in 10.0 mi NNW 9.2 mph - N/A   Clear
5:56 PM 68.0 °F 55.9 °F 65% 30.06 in 10.0 mi Calm Calm - N/A   Clear
6:56 PM 64.0 °F 57.9 °F 80% 30.07 in 10.0 mi North 5.8 mph - N/A   Clear
7:56 PM 61.0 °F 57.0 °F 87% 30.08 in 10.0 mi NNW 8.1 mph - N/A   Clear
8:56 PM 60.1 °F 55.9 °F 86% 30.09 in 10.0 mi NNW 6.9 mph - N/A   Clear
9:56 PM 59.0 °F 55.9 °F 90% 30.09 in 10.0 mi Calm Calm - N/A   Clear
10:56 PM 57.9 °F 55.0 °F 90% 30.09 in 10.0 mi Calm Calm - N/A   Clear
11:56 PM 57.9 °F 55.0 °F 90% 30.07 in 10.0 mi Calm Calm - N/A   Clear